FW2278 Weather Reports


time (UTC)temp
F
wind
direction
speed
knots
gust
knots
rain 1hr
in
rain 24hr
in
rain mn
in
humidity
%
barometer
mb
20260509085804 57 120 0.0 0.0 0.00 0.00 0.00 82 1026.9
20260509084804 57 120 0.0 0.0 0.00 0.00 0.00 81 1026.7
20260509084304 58 120 0.0 0.0 0.00 0.00 0.00 81 1026.7
20260509082804 59 120 0.0 0.0 0.00 0.00 0.00 78 1026.5
20260509081804 60 120 0.0 0.0 0.00 0.00 0.00 77 1026.4
20260509081304 60 120 0.0 0.0 0.00 0.00 0.00 76 1026.2
20260509080804 60 120 0.0 0.0 0.00 0.00 0.00 75 1026.2
20260509080304 61 120 0.0 0.0 0.00 0.00 0.00 74 1026.1
20260509075804 61 120 0.0 0.0 0.00 0.00 0.00 73 1026.1
20260509075306 62 120 0.0 0.0 0.00 0.00 0.00 73 1026.0
20260509074803 62 120 0.0 0.0 0.00 0.00 0.00 72 1025.9
20260509073303 64 120 0.0 0.0 0.00 0.00 0.00 68 1025.8
20260509072804 65 120 0.0 0.0 0.00 0.00 0.00 67 1025.8
20260509072306 65 120 0.0 0.0 0.00 0.00 0.00 66 1025.7
20260509071804 65 120 0.0 0.0 0.00 0.00 0.00 65 1025.6
20260509071303 65 120 0.0 0.0 0.00 0.00 0.00 65 1025.6
20260509070804 66 120 0.0 0.0 0.00 0.00 0.00 64 1025.6
20260509065804 66 120 0.0 0.0 0.00 0.00 0.00 63 1025.5
20260509065306 66 120 1.7 4.3 0.00 0.00 0.00 63 1025.4
20260509064804 66 119 2.6 8.7 0.00 0.00 0.00 62 1025.4
20260509064305 67 111 2.6 5.2 0.00 0.00 0.00 62 1025.3
20260509063804 67 111 1.7 6.1 0.00 0.00 0.00 62 1025.3
20260509063304 67 110 2.6 5.2 0.00 0.00 0.00 62 1025.2
20260509062804 67 107 2.6 7.0 0.00 0.00 0.00 62 1025.2
20260509062306 67 103 2.6 6.1 0.00 0.00 0.00 62 1025.1
20260509061804 68 101 2.6 5.2 0.00 0.00 0.00 61 1025.1
20260509061304 68 89 2.6 5.2 0.00 0.00 0.00 61 1025.0
20260509055804 68 65 4.3 7.0 0.00 0.00 0.00 60 1024.8
20260509055306 68 102 2.6 7.0 0.00 0.00 0.00 59 1024.7
20260509054804 69 104 2.6 7.8 0.00 0.00 0.00 59 1024.7
20260509054304 69 97 5.2 8.7 0.00 0.00 0.00 58 1024.6
20260509053804 69 89 2.6 7.8 0.00 0.00 0.00 58 1024.6
20260509052804 69 98 3.5 7.0 0.00 0.00 0.00 58 1024.6
20260509052307 69 101 5.2 10.4 0.00 0.00 0.00 57 1024.5
20260509050804 70 66 5.2 8.7 0.00 0.00 0.00 56 1024.5
20260509050304 71 107 4.3 7.8 0.00 0.00 0.00 55 1024.4
20260509045804 71 78 4.3 7.8 0.00 0.00 0.00 55 1024.4
20260509045306 71 67 4.3 7.8 0.00 0.00 0.00 55 1024.4
20260509044304 71 94 3.5 7.0 0.00 0.00 0.00 55 1024.3
20260509043804 71 91 4.3 6.1 0.00 0.00 0.00 54 1024.3
20260509042803 71 81 4.3 7.0 0.00 0.00 0.00 53 1024.2
20260509042306 72 55 4.3 10.4 0.00 0.00 0.00 54 1024.3
20260509041804 72 66 0.0 0.0 0.00 0.00 0.00 53 1024.3
20260509041304 72 55 0.0 0.0 0.00 0.00 0.00 52 1024.2
20260509040804 73 105 0.0 0.0 0.00 0.00 0.00 51 1024.2
20260509040303 72 111 0.0 0.0 0.00 0.00 0.00 50 1024.2
20260509035306 73 103 0.0 6.1 0.00 0.00 0.00 50 1024.2
20260509033304 73 77 3.5 7.0 0.00 0.00 0.00 47 1024.2
20260509032306 72 156 0.0 5.2 0.00 0.00 0.00 48 1024.4
20260509031803 72 113 1.7 7.0 0.00 0.00 0.00 47 1024.4
20260509031304 73 135 3.5 8.7 0.00 0.00 0.00 47 1024.4
20260509030804 73 150 0.0 0.0 0.00 0.00 0.00 49 1024.5
20260509030303 72 167 0.0 0.0 0.00 0.00 0.00 49 1024.5
20260509025803 71 168 0.0 6.1 0.00 0.00 0.00 48 1024.6
20260509025306 72 181 2.6 6.1 0.00 0.00 0.00 49 1024.7
20260509024804 72 215 0.0 0.0 0.00 0.00 0.00 47 1024.7
20260509024304 73 220 0.0 0.0 0.00 0.00 0.00 48 1024.8
20260509022306 72 213 0.0 0.0 0.00 0.00 0.00 50 1025.0
20260509021804 71 213 0.0 0.0 0.00 0.00 0.00 50 1025.2
20260509020804 70 225 0.0 0.0 0.00 0.00 0.00 50 1025.3
20260509015804 70 236 0.0 0.0 0.00 0.00 0.00 51 1025.6
20260509015306 70 256 0.0 0.0 0.00 0.00 0.00 51 1025.6
20260509014803 70 261 0.0 0.0 0.00 0.00 0.00 50 1025.7
20260509014303 70 179 0.0 0.0 0.00 0.00 0.00 52 1025.7
20260509013304 70 138 0.0 0.0 0.00 0.00 0.00 51 1025.8
20260509012804 69 165 0.0 0.0 0.00 0.00 0.00 52 1025.8
20260509012306 69 134 0.0 0.0 0.00 0.00 0.00 52 1025.9
20260509011804 70 217 0.0 0.0 0.00 0.00 0.00 53 1025.9
20260509010804 69 229 0.0 0.0 0.00 0.00 0.00 56 1025.9
20260509010304 68 224 0.0 0.0 0.00 0.00 0.00 57 1026.1
20260509005804 67 224 0.0 0.0 0.00 0.00 0.00 58 1026.2
20260509005306 67 228 0.0 0.0 0.00 0.00 0.00 58 1026.3
20260509004804 67 228 0.0 0.0 0.00 0.00 0.00 60 1026.4
20260509004304 67 230 0.0 2.6 0.00 0.00 0.00 60 1026.4
20260509003803 66 229 0.9 4.3 0.00 0.00 0.00 59 1026.5
20260509003304 66 196 0.9 5.2 0.00 0.00 0.00 62 1026.5
20260509002306 65 232 2.6 5.2 0.00 0.00 0.00 62 1026.6
20260509001803 65 229 0.0 0.0 0.00 0.00 0.00 63 1026.6
20260509001304 64 228 0.9 4.3 0.00 0.00 0.00 64 1026.5
20260509000804 64 226 2.6 5.2 0.00 0.00 0.00 65 1026.5
20260509000304 64 236 0.9 4.3 0.00 0.00 0.00 65 1026.5
20260508235306 63 219 1.7 6.1 0.00 0.00 0.00 66 1026.6
20260508234804 63 244 4.3 7.0 0.00 0.00 0.00 67 1026.6
20260508234304 63 241 0.0 5.2 0.00 0.00 0.00 69 1026.7
20260508231804 61 242 1.7 4.3 0.00 0.00 0.00 71 1026.7
20260508231304 61 241 0.0 0.0 0.00 0.00 0.00 72 1026.7
20260508230804 60 241 0.0 0.0 0.00 0.00 0.00 73 1026.7
20260508230304 60 241 0.0 0.0 0.00 0.00 0.00 73 1026.7
20260508224803 59 241 0.0 2.6 0.00 0.00 0.00 75 1026.8
20260508224304 58 241 1.7 5.2 0.00 0.00 0.00 76 1026.8
20260508223804 58 240 1.7 5.2 0.00 0.00 0.00 76 1026.7
20260508223304 57 241 0.0 2.6 0.00 0.00 0.00 78 1026.7
20260508222804 57 241 0.9 2.6 0.00 0.00 0.00 79 1026.7
20260508222306 57 241 0.9 2.6 0.00 0.00 0.00 80 1026.6
20260508221803 56 241 0.0 0.0 0.00 0.00 0.00 80 1026.6
20260508221304 56 241 0.0 0.0 0.00 0.00 0.00 81 1026.6
20260508220804 55 241 0.0 0.0 0.00 0.00 0.00 81 1026.6
20260508220304 55 241 0.0 0.0 0.00 0.00 0.00 82 1026.5
20260508215804 54 241 0.0 0.0 0.00 0.00 0.00 83 1026.5
20260508214804 53 241 0.0 0.0 0.00 0.00 0.00 84 1026.4
20260508214304 53 241 0.0 0.0 0.00 0.00 0.00 85 1026.3
20260508213804 52 241 0.0 0.0 0.00 0.00 0.00 86 1026.3
20260508213304 52 241 0.0 0.0 0.00 0.00 0.00 86 1026.3
20260508212804 52 241 0.0 0.0 0.00 0.00 0.00 86 1026.2
20260508212306 52 241 0.0 0.0 0.00 0.00 0.00 85 1026.2
20260508211303 51 241 0.0 0.0 0.00 0.00 0.00 85 1026.0
20260508210804 51 241 0.0 0.0 0.00 0.00 0.00 85 1026.0
20260508205804 52 241 0.0 0.0 0.00 0.00 0.00 84 1025.9
20260508204304 52 241 0.0 0.0 0.00 0.00 0.00 84 1025.7
20260508202306 53 241 0.0 0.0 0.00 0.00 0.00 83 1025.3
20260508201804 54 241 0.0 0.0 0.00 0.00 0.00 82 1025.3
20260508201303 54 241 0.0 0.0 0.00 0.00 0.00 82 1025.1
20260508195804 54 241 0.0 0.0 0.00 0.00 0.00 81 1025.0
20260508194804 55 241 0.0 0.0 0.00 0.00 0.00 81 1024.8
20260508194304 55 241 0.0 0.0 0.00 0.00 0.00 81 1024.7
20260508193804 55 241 0.0 0.0 0.00 0.00 0.00 81 1024.6
20260508192306 55 241 0.0 0.0 0.00 0.00 0.00 82 1024.4
20260508191804 54 241 0.0 0.0 0.00 0.00 0.00 82 1024.3
20260508191303 54 241 0.0 0.0 0.00 0.00 0.00 82 1024.3
20260508190804 54 241 0.0 0.0 0.00 0.00 0.00 82 1024.3
20260508185804 54 241 0.0 0.0 0.00 0.00 0.00 82 1024.3
20260508184804 54 241 0.0 0.0 0.00 0.00 0.00 82 1024.2
20260508184304 54 241 0.0 0.0 0.00 0.00 0.00 82 1024.3
20260508183803 54 241 0.0 0.0 0.00 0.00 0.00 82 1024.2
20260508183304 54 241 0.0 0.0 0.00 0.00 0.00 82 1024.1
20260508182306 54 241 0.0 0.0 0.00 0.00 0.00 83 1024.1
20260508181804 54 241 0.0 0.0 0.00 0.00 0.00 83 1024.1
20260508181304 54 241 0.0 0.0 0.00 0.00 0.00 83 1024.0
20260508180804 53 241 0.0 0.0 0.00 0.00 0.00 83 1023.9
20260508180304 53 241 0.0 0.0 0.00 0.00 0.00 83 1023.9
20260508175804 53 241 0.0 0.0 0.00 0.00 0.00 83 1023.9
20260508175306 53 241 0.0 0.0 0.00 0.00 0.00 83 1023.8
20260508174804 53 241 0.0 0.0 0.00 0.00 0.00 83 1023.9
20260508174303 53 241 0.0 0.0 0.00 0.00 0.00 83 1023.9
20260508173804 52 241 0.0 0.0 0.00 0.00 0.00 83 1023.9
20260508173304 52 241 0.0 0.0 0.00 0.00 0.00 82 1023.8
20260508172804 53 241 0.0 0.0 0.00 0.00 0.00 82 1023.8
20260508171303 53 241 0.0 0.0 0.00 0.00 0.00 81 1023.7
20260508170804 54 241 0.0 0.0 0.00 0.00 0.00 81 1023.7
20260508165804 54 241 0.0 0.0 0.00 0.00 0.00 80 1023.9
20260508164804 54 241 0.0 0.0 0.00 0.00 0.00 80 1023.8
20260508164304 54 241 0.0 0.0 0.00 0.00 0.00 80 1023.8
20260508163803 54 241 0.0 0.0 0.00 0.00 0.00 80 1023.9
20260508162804 54 241 0.0 0.0 0.00 0.00 0.00 80 1023.8
20260508162306 54 241 0.0 0.0 0.00 0.00 0.00 80 1023.8
20260508161804 54 241 0.0 0.0 0.00 0.00 0.00 80 1023.7
20260508161304 54 241 0.0 0.0 0.00 0.00 0.00 80 1023.7
20260508160804 54 241 0.0 0.0 0.00 0.00 0.00 80 1023.7
20260508160304 54 241 0.0 0.0 0.00 0.00 0.00 80 1023.8
20260508155804 54 241 0.0 0.0 0.00 0.00 0.00 80 1023.8
20260508155306 54 241 0.0 0.0 0.00 0.00 0.00 80 1023.8
20260508154303 54 241 0.0 0.0 0.00 0.00 0.00 80 1023.8
20260508153804 54 241 0.0 0.0 0.00 0.00 0.00 80 1023.8
20260508153304 54 241 0.0 0.0 0.00 0.00 0.00 80 1023.8
20260508152306 54 241 0.0 0.0 0.00 0.00 0.00 81 1023.8
20260508150804 53 241 0.0 0.0 0.00 0.00 0.00 81 1023.9
20260508150303 53 241 0.0 0.0 0.00 0.00 0.00 80 1023.9
20260508145803 53 241 0.0 0.0 0.00 0.00 0.00 80 1023.8
20260508145306 53 241 0.0 0.0 0.00 0.00 0.00 80 1023.8
20260508144803 53 241 0.0 0.0 0.00 0.00 0.00 79 1023.8
20260508144304 54 241 0.0 0.0 0.00 0.00 0.00 78 1023.7
20260508143804 54 241 0.0 0.0 0.00 0.00 0.00 77 1023.7
20260508143304 54 241 0.0 0.0 0.00 0.00 0.00 76 1023.7
20260508142803 54 241 0.0 0.0 0.00 0.00 0.00 76 1023.7
20260508142306 54 241 0.0 0.0 0.00 0.00 0.00 75 1023.7
20260508141804 55 241 0.0 0.0 0.00 0.00 0.00 74 1023.7
20260508140804 56 241 0.0 0.0 0.00 0.00 0.00 73 1023.8
20260508135306 57 241 0.0 0.0 0.00 0.00 0.00 72 1023.6
20260508134304 57 241 0.0 0.0 0.00 0.00 0.00 71 1023.4
20260508133804 57 241 0.0 0.0 0.00 0.00 0.00 71 1023.4
20260508131804 58 240 0.0 0.0 0.00 0.00 0.00 71 1023.4
20260508131304 58 240 0.0 0.0 0.00 0.00 0.00 70 1023.4
20260508130804 58 240 0.0 0.0 0.00 0.00 0.00 70 1023.4
20260508130304 58 240 0.0 0.0 0.00 0.00 0.00 70 1023.4
20260508125804 58 240 0.0 0.0 0.00 0.00 0.00 70 1023.3
20260508125306 58 240 0.0 0.0 0.00 0.00 0.00 70 1023.4
20260508124803 57 242 0.0 0.0 0.00 0.00 0.00 70 1023.3
20260508124304 57 242 0.0 0.0 0.00 0.00 0.00 71 1023.3
20260508123304 57 242 0.0 0.0 0.00 0.00 0.00 71 1023.4
20260508122306 57 242 0.0 0.0 0.00 0.00 0.00 71 1023.4
20260508121804 57 242 0.0 0.0 0.00 0.00 0.00 71 1023.5
20260508121304 57 242 0.0 0.0 0.00 0.00 0.00 71 1023.5
20260508120804 57 242 0.0 0.0 0.00 0.00 0.00 71 1023.4
20260508120304 57 242 0.0 0.0 0.00 0.00 0.00 71 1023.4
20260508115306 57 242 0.0 0.0 0.00 0.00 0.00 71 1023.4
20260508114804 57 242 0.0 0.0 0.00 0.00 0.00 71 1023.4
20260508114304 57 243 0.0 0.0 0.00 0.00 0.00 71 1023.3
20260508113804 57 243 0.0 0.0 0.00 0.00 0.00 71 1023.3
20260508113304 57 243 0.0 0.0 0.00 0.00 0.00 71 1023.4
20260508112804 57 243 0.0 0.0 0.00 0.00 0.00 72 1023.3
20260508112307 57 243 0.0 0.0 0.00 0.00 0.00 72 1023.3
20260508111304 57 243 0.0 0.0 0.00 0.00 0.00 72 1023.2
20260508110804 57 243 0.0 0.0 0.00 0.00 0.00 72 1023.2
20260508105804 57 243 0.0 0.0 0.00 0.00 0.00 71 1023.1
20260508105306 57 243 0.0 0.0 0.00 0.00 0.00 72 1023.1
20260508104304 56 244 0.0 0.0 0.00 0.00 0.00 72 1022.8
20260508103304 57 244 0.0 0.0 0.00 0.00 0.00 71 1022.8
20260508102804 57 244 0.0 0.0 0.00 0.00 0.00 71 1022.8
20260508101804 57 244 0.0 0.0 0.00 0.00 0.00 70 1022.7
20260508101303 57 244 0.0 0.0 0.00 0.00 0.00 69 1022.6
20260508100804 58 244 0.0 0.0 0.00 0.00 0.00 69 1022.7
20260508100304 58 244 0.0 0.0 0.00 0.00 0.00 68 1022.7
20260508095804 58 244 0.0 0.0 0.00 0.00 0.00 68 1022.5
20260508095306 58 244 0.0 0.0 0.00 0.00 0.00 67 1022.3
20260508094304 59 244 0.0 0.0 0.00 0.00 0.00 67 1022.1
20260508093304 59 244 0.0 0.0 0.00 0.00 0.00 66 1022.1
20260508092312 60 244 0.0 0.0 0.00 0.00 0.00 65 1022.0
20260508091804 60 244 0.0 0.0 0.00 0.00 0.00 65 1022.0
20260508091304 60 244 0.0 0.0 0.00 0.00 0.00 64 1021.9